Weather History for Galesburg, IL

Change the Weather History Date:

Sunday, June 30, 2013

  Actual Average Record
Temperature  
Mean Temperature 68 °F -  
Max Temperature 79 °F 83 °F 98 °F (1956)
Min Temperature 59 °F 63 °F 51 °F (2004)
Cooling Degree Days 4    
Growing Degree Days 18 (Base 50)    
Moisture  
Dew Point 59 °F    
Average Humidity 73    
Maximum Humidity 95    
Minimum Humidity 49    
Precipitation  
Precipitation 0.11 in - - ()
Sea Level Pressure  
Sea Level Pressure 29.91 in    
Wind  
Wind Speed 9 mph (North)    
Max Wind Speed 17 mph    
Max Gust Speed 23 mph    
Visibility 10 miles    
Events      
Averages and records for this station are not official NWS values.
T = Trace of Precipitation, MM = Missing Value Source: NWS Daily Summary

Daily Weather History Graph

Daily Weather History Graph

Search for Another Location

Airport:

Trip Planner

Search our weather history database for the weather conditions in past years. The results will help you decide how hot, cold, wet, or windy it might be!

Date:

Astronomy

Jun. 30, 2013 Rise Set
Actual Time 5:33 AM CDT 8:37 PM CDT
Civil Twilight 4:59 AM CDT 9:10 PM CDT
Nautical Twilight 4:17 AM CDT 9:53 PM CDT
Astronomical Twilight 3:26 AM CDT 10:43 PM CDT
Moon 12:34 AM CDT (6/30) 1:50 PM CDT (6/30)
Length of Visible Light 16h 11m
Length of Day
15h 04m
Last Quarter, 45% of the Moon is Illuminated
Jun 30
Last Quarter
Jul 8
New
Jul 15
First Quarter
Jul 22
Full
Jul 29
Last Quarter

Hourly Weather History & Observations

Time (CDT) Temp. Dew Point Humidity Pressure Visibility Wind Dir Wind Speed Gust Speed Precip Events Conditions
12:15 AM 63.1 °F 60.4 °F 91% 29.81 in 10.0 mi North 6.9 mph - N/A   Overcast
12:35 AM 63.1 °F 60.8 °F 92% 29.82 in 10.0 mi NNW 5.8 mph - N/A   Overcast
12:55 AM 62.6 °F 60.8 °F 94% 29.82 in 10.0 mi NNW 4.6 mph - N/A   Overcast
1:15 AM 62.6 °F 60.8 °F 94% 29.82 in 10.0 mi North 5.8 mph - N/A   Mostly Cloudy
1:35 AM 62.8 °F 60.8 °F 93% 29.82 in 10.0 mi North 5.8 mph - N/A   Mostly Cloudy
1:55 AM 63.3 °F 61.0 °F 92% 29.82 in 10.0 mi NNW 6.9 mph - N/A   Overcast
2:15 AM 63.0 °F 60.8 °F 93% 29.82 in 10.0 mi NNW 4.6 mph - N/A   Overcast
2:35 AM 62.8 °F 60.8 °F 93% 29.83 in 10.0 mi NNW 5.8 mph - N/A   Overcast
2:55 AM 62.6 °F 60.8 °F 94% 29.82 in 10.0 mi NNW 6.9 mph - N/A   Overcast
3:15 AM 62.1 °F 60.1 °F 93% 29.82 in 10.0 mi NNW 8.1 mph - N/A   Mostly Cloudy
3:35 AM 62.1 °F 59.9 °F 93% 29.82 in 10.0 mi NNW 10.4 mph - N/A   Mostly Cloudy
3:55 AM 61.7 °F 59.5 °F 93% 29.83 in 10.0 mi North 8.1 mph - N/A   Scattered Clouds
4:15 AM 61.0 °F 59.0 °F 93% 29.83 in 10.0 mi North 6.9 mph - N/A   Clear
4:35 AM 60.4 °F 58.5 °F 93% 29.84 in 10.0 mi NNW 5.8 mph - N/A   Scattered Clouds
4:55 AM 60.1 °F 58.1 °F 93% 29.84 in 10.0 mi NNW 5.8 mph - N/A   Clear
5:15 AM 59.9 °F 58.1 °F 94% 29.85 in 10.0 mi NNW 5.8 mph - N/A   Clear
5:35 AM 59.2 °F 57.6 °F 94% 29.86 in 10.0 mi NNW 4.6 mph - N/A   Clear
5:55 AM 59.2 °F 57.7 °F 95% 29.86 in 10.0 mi NNW 6.9 mph - N/A   Mostly Cloudy
6:15 AM 60.3 °F 58.6 °F 94% 29.87 in 10.0 mi NNW 6.9 mph - N/A   Overcast
6:35 AM 61.0 °F 59.0 °F 93% 29.87 in 10.0 mi NNW 8.1 mph - N/A   Overcast
6:55 AM 62.1 °F 59.9 °F 93% 29.88 in 10.0 mi North 9.2 mph - N/A   Overcast
7:15 AM 62.6 °F 59.0 °F 88% 29.88 in 10.0 mi North 8.1 mph - N/A   Overcast
7:35 AM 62.6 °F 59.0 °F 88% 29.89 in 10.0 mi North 10.4 mph - N/A   Overcast
7:55 AM 63.5 °F 59.0 °F 85% 29.89 in 10.0 mi North 13.8 mph 17.3 mph N/A   Overcast
9:55 AM 69.4 °F 60.1 °F 72% 29.91 in 10.0 mi North 17.3 mph 20.7 mph N/A   Mostly Cloudy
10:15 AM 70.7 °F 61.0 °F 71% 29.91 in 10.0 mi North 13.8 mph - N/A   Scattered Clouds
10:35 AM 71.6 °F 60.6 °F 68% 29.91 in 10.0 mi North 16.1 mph 20.7 mph N/A   Scattered Clouds
10:55 AM 71.8 °F 60.3 °F 67% 29.92 in 10.0 mi NNE 13.8 mph - N/A   Scattered Clouds
11:15 AM 73.4 °F 60.8 °F 65% 29.92 in 10.0 mi NNE 17.3 mph - N/A   Scattered Clouds
11:55 AM 72.3 °F 59.4 °F 64% 29.93 in 10.0 mi NNE 17.3 mph 20.7 mph N/A   Mostly Cloudy
12:15 PM 73.4 °F 58.3 °F 59% 29.93 in 10.0 mi NNE 13.8 mph - N/A   Mostly Cloudy
12:35 PM 73.6 °F 58.8 °F 60% 29.93 in 10.0 mi NNE 13.8 mph - N/A   Overcast
12:55 PM 76.5 °F 60.8 °F 58% 29.93 in 10.0 mi NNE 17.3 mph 21.9 mph N/A   Mostly Cloudy
1:15 PM 76.3 °F 59.9 °F 57% 29.93 in 10.0 mi NNE 16.1 mph 20.7 mph N/A   Mostly Cloudy
1:35 PM 75.7 °F 57.9 °F 54% 29.92 in 10.0 mi NNE 15.0 mph 20.7 mph N/A   Mostly Cloudy
1:55 PM 75.6 °F 59.2 °F 57% 29.92 in 10.0 mi North 16.1 mph 20.7 mph N/A   Mostly Cloudy
2:15 PM 76.5 °F 58.8 °F 54% 29.92 in 10.0 mi NNE 16.1 mph - N/A   Mostly Cloudy
2:35 PM 76.3 °F 57.4 °F 52% 29.92 in 10.0 mi NNE 13.8 mph - N/A   Mostly Cloudy
2:55 PM 76.3 °F 58.1 °F 53% 29.92 in 10.0 mi NNE 15.0 mph 23.0 mph N/A   Overcast
3:35 PM 78.6 °F 58.3 °F 50% 29.92 in 10.0 mi NNE 12.7 mph - N/A   Overcast
3:55 PM 76.1 °F 59.0 °F 55% 29.92 in 10.0 mi North 12.7 mph - N/A   Mostly Cloudy
4:15 PM 78.8 °F 58.8 °F 50% 29.92 in 10.0 mi NNE 16.1 mph - N/A   Scattered Clouds
4:35 PM 75.7 °F 57.6 °F 53% 29.92 in 10.0 mi North 13.8 mph 20.7 mph N/A   Scattered Clouds
4:55 PM 77.5 °F 57.7 °F 50% 29.92 in 10.0 mi North 13.8 mph - N/A   Scattered Clouds
5:15 PM 77.9 °F 57.2 °F 49% 29.93 in 10.0 mi North 16.1 mph - N/A   Scattered Clouds
5:35 PM 76.5 °F 57.6 °F 52% 29.94 in 10.0 mi North 17.3 mph - N/A   Scattered Clouds
5:55 PM 77.0 °F 57.2 °F 50% 29.94 in 10.0 mi North 15.0 mph 23.0 mph N/A   Scattered Clouds
6:15 PM 76.5 °F 57.4 °F 52% 29.94 in 10.0 mi North 16.1 mph - N/A   Scattered Clouds
6:35 PM 76.1 °F 58.6 °F 55% 29.94 in 10.0 mi North 13.8 mph - N/A   Scattered Clouds
6:55 PM 76.1 °F 58.6 °F 55% 29.95 in 10.0 mi North 13.8 mph - N/A   Mostly Cloudy
7:15 PM 74.8 °F 58.6 °F 57% 29.95 in 10.0 mi North 12.7 mph - N/A   Mostly Cloudy
7:35 PM 74.7 °F 57.7 °F 55% 29.95 in 10.0 mi NNE 11.5 mph - N/A   Scattered Clouds
7:55 PM 72.7 °F 56.8 °F 57% 29.95 in 10.0 mi NNE 11.5 mph - N/A   Scattered Clouds
8:15 PM 71.1 °F 56.5 °F 60% 29.96 in 10.0 mi NNE 10.4 mph - N/A   Scattered Clouds
8:35 PM 68.5 °F 56.8 °F 66% 29.96 in 10.0 mi NNE 9.2 mph - N/A   Clear
8:55 PM 68.7 °F 55.4 °F 62% 29.96 in 10.0 mi NNE 9.2 mph - N/A   Mostly Cloudy
9:15 PM 66.0 °F 54.9 °F 67% 29.97 in 10.0 mi NNE 6.9 mph - N/A   Scattered Clouds
9:35 PM 63.7 °F 56.5 °F 77% 29.99 in 10.0 mi North 6.9 mph - N/A   Clear
9:55 PM 65.5 °F 57.2 °F 75% 29.99 in 10.0 mi NNE 10.4 mph - N/A   Clear
10:15 PM 66.0 °F 56.5 °F 71% 30.00 in 10.0 mi NNE 9.2 mph - N/A   Clear
10:35 PM 64.8 °F 56.3 °F 74% 30.00 in 10.0 mi NNE 9.2 mph - N/A   Clear
10:55 PM 63.9 °F 56.8 °F 78% 30.00 in 10.0 mi NNE 9.2 mph - N/A   Clear
11:15 PM 62.8 °F 56.8 °F 81% 30.01 in 10.0 mi NNE 8.1 mph - N/A   Clear
11:35 PM 60.8 °F 56.3 °F 85% 30.02 in 10.0 mi NNE 6.9 mph - N/A   Clear
11:55 PM 59.4 °F 54.9 °F 85% 30.02 in 10.0 mi NNE 6.9 mph - N/A   Clear